Find Starlink 35694

NORAD ID: 66389 Int'l Des: 2025-257 Owner: SPXS Country: US Constellation: starlink operational
LEOCIRCULAR

現在のビュー

3D地球を読み込み中...

About Starlink 35694

Starlink 35694 (NORAD 66389) is a starlink constellation satellite (v2 mini) launched Nov 9, 2025 by SPXS of US. It operates in LEO, CIRCULAR orbit with a mass of 575.00 kg.

次回通過

Passes for default location (London). Set your location on the main map for personalized predictions.

高度履歴

Loading altitude history...

軌道要素

1 66389U 25257K 26263.57099490 .00022783 00000-0 68324-3 0 9993
2 66389 53.1596 29.4827 0000794 120.2124 239.8958 15.34405805 49605
Epoch: Sep 20, 2026 • Age: 36 hours

現在のステータス

高度 468.4 km
遠地点 / 近地点 N/A
速度 7.64 km/s
衛星直下点 52.23°N, 65.41°E
打ち上げ日 Nov 9, 2025
運用期間 0.8 years
タイプ internet

技術仕様

分類 Payload
質量 575.00 kg
乾燥質量 530.00 kg
長さ 0.30 m
スパン 29.00 m
形状 ? Box + pan
製造者 SPXS
バスタイプ Starlink V2MO
フェーズステータス In Orbit
所有者/国 SPXS/US

Most Searched